CAPE
0 0 0 0 0 0 0 0 0 0 0 0 0 0 0 0 0 0 0 0 0 0 0 0 0 0 0 0 0 0 0 0 0 0 0 0 0 0 0 0 0 0 0 0
0 0 0 0 0 0 0 0 0 0 0 0 0 0 0 0 0 0 0 0 0 0 0 0 0 0 0 0 0 0 0 0 0 0 0 0 0 0 0 0 0 0 0 0
0 0 0 0 0 0 0 0 0 0 0 0 0 0 0 0 0 0 0 0 0 0 0 0 0 0 0 0 0 0 0 0 0 0 0 0 0 0 0 0 0 0 0 0
0 0 0 0 0 0 0 0 0 0 0 0 0 0 0 0 0 0 0 0 0 0 0 0 0 0 0 0 0 0 0 0 0 0 0 0 0 0 0 0 0 0 0 0
0 0 0 0 0 0 0 0 0 0 0 0 0 0 0 0 0 0 0 0 0 0 0 0 0 0 0 0 0 0 0 0 0 0 0 0 0 0 0 0 0 0 0 0
0 0 0 0 0 0 0 0 0 0 0 0 0 0 0 0 0 0 0 0 0 0 0 0 0 0 0 0 0 0 0 0 0 0 0 0 0 0 0 0 0 0 0 0
0 0 0 0 0 0 0 0 0 0 0 0 0 0 0 0 0 0 0 0 0 0 0 0 0 0 0 0 0 0 0 0 0 0 0 0 0 0 0 0 0 0 0 0
0 0 0 0 0 0 0 0 0 0 0 0 0 0 0 0 0 0 0 0 0 0 0 0 0 0 0 0 0 0 0 0 0 0 0 0 0 0 0 0 0 0 0 0
0 0 0 0 0 0 0 0 0 0 0 0 0 0 0 0 0 0 0 0 0 0 0 0 0 0 0 0 0 0 0 0 1 0 0 0 0 0 0 0 0 0 0 0
0 0 0 0 0 0 0 0 0 0 0 0 0 0 0 0 0 0 0 0 0 0 0 0 0 0 0 0 0 0 0 0 0 0 0 0 0 0 0 0 0 0 0 0
0 0 0 0 0 0 0 0 0 0 0 0 0 0 0 0 0 0 0 0 0 0 0 0 0 0 0 0 0 0 0 0 0 1 0 0 0 0 0 0 0 0 0 0
0 0 0 0 0 0 0 0 0 0 0 0 1 0 0 0 0 0 0 0 0 0 0 0 0 0 0 0 0 0 0 0 0 0 0 0 0 0 0 0 0 0 0 0
0 0 0 0 0 0 0 0 0 0 0 0 0 0 0 0 0 0 0 0 1 0 0 0 0 0 0 0 0 0 0 0 0 1 0 0 1 0 0 0 0 0 0 0
7 1 0 0 0 0 0 0 0 0 0 0 0 0 0 0 0 0 0 0 1 0 0 0 0 0 0 0 0 0 0 0 1 0 0 0 1 0 0 0 0 0 0 0
0 0 0 0 0 0 0 0 0 0 0 0 0 0 0 0 0 1 1 0 1 0 0 0 0 0 0 0 0 0 0 1 2 1 0 0 0 0 0 0 0 0 0 0
0 0 0 0 0 0 0 0 0 0 0 0 0 0 0 0 0 0 0 0 0 0 0 0 1 0 0 0 0 0 0 0 3 2 0 0 0 1 0 0 0 0 0 0
0 0 0 0 0 0 0 0 0 0 0 0 0 0 0 0 0 1 0 5 1 0 0 0 2 1 0 0 0 0 0 0 7 5 0 0 0 1 0 0 0 0 0 0
0 0 0 0 0 0 0 0 0 0 0 0 0 0 0 0 0 5 0 23 2 0 0 0 0 0 2 0 0 0 0 6 7 7 0 0 1 0 0 0 0 1 0 0
0 0 0 0 0 0 0 0 0 0 0 0 0 0 0 0 0 0 0 0 11 2 0 0 0 2 3 0 0 0 0 5 9 1 0 0 0 0 0 0 1 1 1 0
0 0 0 0 0 0 0 0 0 0 0 0 0 1 0 0 0 0 0 0 1 0 0 0 0 0 3 1 0 0 1 0 2 0 0 0 0 0 0 0 1 1 0 0
0 0 0 0 0 0 0 0 0 0 0 0 0 0 0 0 0 0 2 0 0 1 1 0 0 0 2 3 0 0 0 0 4 2 0 0 0 0 0 0 0 1 1 0
0 0 0 0 0 0 0 0 0 0 0 0 0 0 0 0 0 0 0 0 0 1 0 0 0 0 0 2 2 1 0 0 0 0 0 0 0 0 0 1 1 1 1 1
0 0 0 0 1 0 0 0 0 0 0 0 0 0 0 0 0 0 0 0 0 0 0 0 0 0 0 0 3 1 1 0 0 0 0 0 0 0 0 1 1 1 1 1
0 0 0 0 0 0 0 0 0 0 0 0 0 0 0 0 0 0 0 0 0 0 0 0 0 0 0 0 1 3 2 1 0 0 0 0 0 0 0 0 1 1 1 2
0 0 0 0 0 0 0 0 0 0 0 0 0 0 0 0 0 0 0 0 0 0 0 0 0 0 0 0 0 0 2 1 0 0 0 0 0 0 0 0 0 1 1 0
0 0 1 0 0 0 0 0 0 0 0 0 0 0 0 0 0 0 0 0 0 0 0 0 0 0 0 0 0 0 0 1 0 0 0 0 0 0 0 0 0 0 0 0
CIN
-0 -0 -0 -0 -0 -0 -0 -0 -0 -0 -0 -0 -0 -0 -0 -0 -0 -0 -0 -0 -0 -0 -0 -0 -0 -0 -0 -0 -0 -0 -0 -0 -0 -0 -0 -0 -0 -0 -0 -0 -0 -0 -0 -0
-0 -0 -0 -0 -0 -0 -0 -0 -0 -0 -0 -0 -0 -0 -0 -0 -0 -0 -0 -0 -0 -0 -0 -0 -0 -0 -0 -0 -0 -0 -0 -0 -0 -0 -0 -0 -0 -0 -0 -0 -0 -0 -0 -0
-0 -0 -0 -0 -0 -0 -0 -0 -0 -0 -0 -0 -0 -0 -0 -0 -0 -0 -0 -0 -0 -0 -0 -0 -0 -0 -0 -0 -0 -0 -0 -0 -0 -0 -0 -0 -0 -0 -0 -0 -0 -0 -0 -0
-0 -0 -0 -0 -0 -0 -0 -0 -0 -0 -0 -0 -0 -0 -0 -0 -0 -0 -0 -0 -0 -0 -0 -0 -0 -0 -0 -0 -0 -0 -0 -0 -0 -0 -0 -0 -0 -0 -0 -0 -0 -0 -0 -0
-0 -0 -0 -0 -0 -0 -0 -0 -0 -0 -0 -0 -0 -0 -0 -0 -0 -0 -0 -0 -0 -0 -0 -0 -0 -0 -0 -0 -0 -0 -0 -0 -0 -0 -0 -0 -0 -0 -0 -0 -0 -0 -0 -0
-0 -0 -0 -0 -0 -0 -0 -0 -0 -0 -0 -0 -0 -0 -0 -0 -0 -0 -0 -0 -0 -0 -0 -0 -0 -0 -0 -0 -0 -0 -0 -0 -0 -0 -0 -0 -0 -0 -0 -0 -0 -0 -0 -0
-0 -0 -0 -0 -0 -0 -0 -0 -0 -0 -0 -0 -0 -0 -0 -0 -0 -0 -0 -0 -0 -0 -0 -0 -0 -0 -0 -0 -0 -0 -0 -0 -0 -0 -0 -0 -0 -0 -0 -0 -0 -0 -0 -0
-0 -0 -0 -0 -0 -0 -0 -0 -0 -0 -0 -0 -0 -0 -0 -0 -0 -0 -0 -0 -0 -0 -0 -0 -0 -0 -0 -0 -0 -0 -0 -0 -0 -0 -0 -0 -0 -0 -0 -0 -0 -0 -0 -0
-0 -0 -0 -0 -0 -0 -0 -0 -0 -0 -0 -0 -0 -0 -0 -0 -0 -0 -0 -0 -0 -0 -0 -0 -0 -0 -0 -0 -0 -0 -0 -0 -0 -0 -0 -0 -0 -0 -0 -0 -0 -0 -0 -0
-0 -0 -0 -0 -0 -0 -0 -0 -0 -0 -0 -0 -0 -0 -0 -0 -0 -0 -0 -0 -0 -0 -0 -0 -0 -0 -0 -0 -0 -0 -0 -0 -0 -1 -0 -0 -0 -0 -0 -0 -0 -0 -0 -0
-0 -0 -0 -0 -0 -0 -0 -0 -1 -0 -0 -0 -0 -0 -0 -0 -0 -0 -0 -0 -0 -0 -0 -0 -0 -0 -0 -0 -0 -0 -0 -0 -0 -0 -0 -0 -0 -0 -0 -0 -0 -0 -0 -0
-0 -1 -0 -0 -0 -0 -0 -0 -0 -0 -0 -0 -1 -0 -0 -0 -0 -0 -0 -0 -0 -0 -0 -0 -0 -0 -0 -0 -0 -0 -0 -0 -0 -0 -0 -0 -0 -0 -0 -0 -0 -0 -0 -0
-0 -0 -0 -0 -0 -0 -0 -0 -0 -0 -1 -0 -0 -0 -0 -0 -0 -0 -0 -0 -0 -0 -0 -0 -0 -0 -0 -0 -0 -0 -0 -0 -0 -0 -0 -0 -0 -0 -0 -0 -0 -0 -0 -0
-5 -2 -0 -0 -0 -0 -0 -0 -0 -0 -0 -0 -0 -0 -0 -0 -0 -0 -0 -0 -0 -0 -0 -0 -0 -0 -0 -0 -0 -0 -0 -0 -0 -0 -0 -0 -0 -0 -0 -0 -0 -0 -0 -0
-2 -2 -0 -0 -0 -0 -0 -0 -0 -0 -0 -0 -0 -0 -0 -0 -0 -0 -0 -0 -0 -0 -0 -0 -0 -0 -0 -0 -0 -0 -0 -1 -0 -1 -0 -0 -0 -0 -0 -0 -0 -0 -0 -0
-0 -0 -0 -0 -0 -0 -0 -0 -0 -0 -0 -0 -0 -0 -0 -0 -0 -0 -0 -0 -0 -0 -0 -0 -0 -0 -0 -0 -0 -0 -0 -0 -0 -4 -1 -0 -0 -0 -0 -0 -0 -0 -0 -0
-0 -0 -0 -0 -0 -0 -0 -0 -0 -0 -0 -0 -0 -0 -0 -0 -0 -0 -0 -0 -0 -0 -0 -0 -0 -0 -0 -0 -0 -0 -0 -0 -1 -7 -0 -0 -0 -0 -0 -0 -0 -0 -0 -0
-0 -0 -0 -0 -0 -0 -0 -0 -0 -0 -0 -0 -0 -0 -0 -0 -0 -0 -0 -0 -0 -0 -0 -0 -0 -0 -0 -0 -0 -0 -0 -1 -2 -8 -0 -0 -0 -0 -0 -0 -0 -0 -0 -0
-0 -0 -0 -0 -0 -0 -0 -0 -0 -0 -0 -0 -0 -1 -0 -0 -0 -0 -0 -0 -1 -0 -0 -0 -0 -0 -0 -0 -0 -0 -0 -6 -10 -12 -0 -0 -0 -0 -0 -0 -0 -0 -0 -0
-0 -0 -0 -0 -0 -0 -0 -0 -0 -0 -0 -0 -0 -4 -0 -17 -0 -0 -0 -0 -0 -0 -0 -0 -0 -0 -0 -0 -0 -0 -13 -1 -26 -0 -0 -0 -0 -0 -0 -0 -0 -0 -0 -0
-0 -0 -0 -0 -0 -0 -0 -0 -0 -0 -0 -0 -0 -8 -0 -0 -0 -0 -10 -0 -0 -0 -0 -0 -0 -0 -0 -0 -0 -0 -0 -0 -32 -59 -0 -0 -0 -0 -0 -0 -0 -0 -0 -0
-0 -0 -0 -0 -0 -0 -0 -0 -0 -0 -0 -0 -0 -0 -0 -0 -0 -0 -0 -0 -0 -0 -0 -0 -0 -0 -0 -0 -0 -0 -0 -0 -0 -0 -0 -0 -0 -0 -0 -0 -0 -0 -0 -0
-0 -0 -3 -1 -3 -0 -0 -0 -0 -0 -0 -0 -0 -0 -0 -0 -0 -0 -0 -0 -0 -0 -0 -0 -0 -0 -0 -0 -0 -0 -0 -0 -0 -0 -0 -0 -0 -0 -0 -0 -0 -0 -0 -0
-0 -0 -0 -0 -0 -0 -0 -0 -0 -0 -0 -0 -0 -0 -0 -0 -0 -0 -0 -0 -0 -0 -0 -0 -0 -0 -0 -0 -0 -0 -0 -0 -0 -0 -0 -0 -0 -0 -0 -0 -0 -0 -0 -0
-0 -3 -0 -0 -0 -0 -0 -0 -0 -0 -0 -0 -0 -0 -0 -0 -0 -0 -0 -0 -0 -0 -0 -0 -0 -0 -0 -0 -0 -0 -0 -0 -0 -0 -0 -0 -0 -0 -0 -0 -0 -0 -0 -0
-0 -0 -3 -0 -0 -0 -0 -0 -0 -0 -0 -0 -0 -0 -0 -0 -0 -0 -0 -0 -0 -0 -0 -0 -0 -0 -0 -0 -0 -0 -0 -0 -0 -0 -0 -0 -0 -0 -0 -0 -0 -0 -0 -0
Wind_Speed
24 25 33 34 33 34 38 43 51 48 45 49 47 64 61 54 54 56 55 52 52 48 45 42 32 29 29 31 34 33 30 25 22 21 23 25 24 21 18 13 8 3 3 7
21 28 30 31 32 35 38 45 47 44 44 52 54 70 69 60 65 60 59 58 53 49 45 44 39 28 27 29 31 35 34 29 25 24 24 26 23 24 21 15 10 5 4 6
21 24 31 33 32 39 40 42 45 52 52 48 52 63 58 46 51 52 53 57 54 53 50 48 43 38 31 29 30 35 35 32 29 26 24 24 23 23 23 18 13 9 6 7
21 28 32 32 33 37 42 35 44 51 52 53 43 67 64 52 53 54 51 48 51 52 50 48 48 43 36 31 30 34 36 35 32 28 27 28 29 27 27 22 18 12 8 8
30 29 31 33 33 37 38 39 47 49 52 53 44 51 62 55 61 54 50 48 48 51 49 52 48 47 39 33 31 32 37 37 33 32 30 30 32 29 25 22 19 15 11 9
27 24 27 30 33 37 40 43 46 41 38 47 39 45 60 51 48 52 48 48 47 48 51 49 49 44 43 37 34 32 34 40 36 34 34 32 32 29 26 24 22 18 14 11
27 27 32 28 40 35 38 41 43 40 38 46 43 52 57 58 56 55 56 55 54 53 48 49 50 48 44 41 37 35 34 40 40 38 37 35 33 32 29 26 24 21 18 15
31 30 36 36 32 38 38 33 36 45 49 58 47 45 45 48 56 57 60 57 57 55 54 52 51 49 50 46 43 40 39 39 41 40 39 37 35 34 32 29 27 24 20 18
32 29 36 33 35 31 35 35 31 39 43 46 40 45 51 49 49 45 47 50 47 46 50 54 53 49 49 48 45 43 43 42 44 42 39 39 36 35 34 31 29 27 24 21
28 37 28 37 29 27 31 30 34 34 42 48 46 47 49 47 50 55 47 45 48 47 44 45 49 50 48 48 47 45 43 41 43 45 42 40 37 35 34 33 33 29 26 23
30 27 36 36 34 38 27 29 27 30 32 41 47 46 45 49 48 47 51 47 50 49 48 43 43 46 48 50 50 48 45 43 41 45 43 40 39 36 34 34 34 31 28 25
27 29 35 40 33 25 15 32 27 34 37 40 44 48 44 41 57 54 50 49 49 49 46 43 42 41 45 49 49 46 43 44 42 42 43 41 39 37 36 35 34 32 30 27
29 28 43 43 28 26 29 23 29 32 33 36 44 45 49 51 51 52 51 48 43 42 41 38 38 40 40 42 45 44 41 41 39 40 42 41 40 38 37 34 33 32 31 29
26 24 30 39 36 32 35 31 30 33 34 40 39 49 50 49 51 50 47 42 38 35 34 34 34 35 36 37 41 41 41 39 38 37 40 41 41 38 36 34 33 32 32 30
19 27 28 26 28 29 27 31 31 34 28 32 44 48 45 48 48 45 36 33 34 34 33 33 33 33 33 34 36 39 38 38 37 38 39 41 39 37 36 34 34 32 32 31
21 29 28 30 29 30 31 33 29 24 30 37 44 46 45 46 46 36 32 30 29 31 32 32 32 31 30 30 31 35 36 36 36 38 38 38 37 36 35 34 33 33 32 32
24 28 30 33 31 34 35 26 24 32 40 36 43 43 45 44 42 33 33 32 30 29 29 30 31 30 29 28 28 31 33 32 35 36 35 36 35 36 35 33 33 33 33 32
22 23 25 33 32 32 26 23 35 42 37 36 38 37 38 37 38 32 34 33 33 32 30 30 30 29 29 27 25 27 28 31 34 34 33 34 34 35 34 34 34 33 33 33
15 20 28 31 31 31 29 27 29 36 43 33 34 36 35 35 33 29 34 30 27 27 29 29 28 27 26 26 26 26 27 28 32 33 33 32 33 34 34 35 35 34 33 33
23 20 27 29 34 29 28 29 35 38 41 28 32 34 36 34 30 31 29 31 27 29 27 27 25 24 22 25 27 27 27 28 30 31 31 30 31 32 34 34 35 34 33 33
36 33 29 30 35 30 22 39 33 31 34 31 36 37 36 33 30 30 32 30 26 25 26 28 25 22 22 22 24 28 28 28 29 28 30 30 31 32 33 33 34 35 34 33
35 38 38 34 34 30 21 35 27 34 36 41 40 39 38 36 34 31 32 31 26 25 25 26 25 23 21 19 18 22 26 28 27 27 29 29 30 31 31 32 33 34 34 34
35 32 41 34 33 31 43 44 45 47 46 45 42 39 37 34 33 31 30 30 27 25 24 24 24 24 22 19 17 19 23 26 29 27 27 28 28 28 29 31 33 34 34 34
36 33 38 38 28 46 51 49 45 44 44 42 39 37 34 34 32 30 29 28 27 25 23 23 24 23 24 21 18 17 19 21 24 27 27 28 29 29 29 30 31 33 34 34
39 39 36 31 37 50 50 47 46 43 41 39 38 36 34 33 32 31 29 29 27 25 24 22 23 22 21 22 19 17 16 16 19 22 25 28 28 28 29 29 30 32 32 33
34 30 28 24 45 46 49 45 41 41 42 41 39 37 36 34 33 31 29 27 26 25 24 22 22 21 21 21 19 18 16 13 15 19 22 24 26 27 27 28 28 27 30 31
Wind_Direction
329 319 309 311 310 303 297 293 289 291 293 291 286 276 276 278 275 272 272 271 268 270 270 269 271 263 256 253 249 245 243 243 240 243 243 245 246 246 249 252 252 230 138 115
325 321 322 319 313 309 304 296 293 294 296 292 287 276 273 277 270 271 269 267 267 269 269 267 266 266 256 249 246 245 242 241 238 242 243 246 245 247 248 247 244 228 175 138
330 328 330 323 317 312 306 299 297 293 297 294 289 278 277 281 276 274 270 267 267 266 266 265 265 263 259 251 243 243 242 240 239 239 239 244 243 247 247 246 242 236 200 160
331 330 327 327 322 321 306 310 305 298 296 287 298 278 275 278 275 273 274 274 269 267 266 265 263 263 260 253 247 242 241 239 238 234 235 237 240 241 244 243 242 235 210 173
325 327 326 326 324 325 314 312 305 299 293 290 289 280 273 280 276 276 278 279 275 269 267 262 262 260 259 254 249 242 240 239 236 234 234 236 240 242 242 240 238 235 219 194
332 337 338 329 328 325 319 315 308 301 297 287 292 283 277 280 282 282 282 280 278 276 268 265 261 261 258 254 249 244 239 238 236 234 234 234 237 238 237 235 235 234 231 224
333 334 338 341 327 334 332 323 310 302 297 290 298 288 279 283 283 284 277 277 277 278 270 267 262 258 256 252 249 246 241 239 236 235 234 235 235 237 236 233 233 232 232 230
328 328 339 338 337 327 329 330 316 301 298 294 297 286 289 293 287 286 276 279 277 274 272 265 262 260 255 253 249 246 243 240 236 235 235 235 235 236 238 235 234 233 233 232
330 329 337 342 339 340 334 328 323 308 304 300 298 295 292 294 291 293 292 287 282 283 277 266 262 259 257 253 249 246 243 241 237 235 234 234 233 234 235 235 236 235 236 237
339 326 343 344 348 346 341 339 329 326 308 300 301 299 297 294 295 293 293 289 283 287 286 276 263 258 258 253 251 247 242 238 236 234 234 233 231 233 235 234 234 234 235 235
343 339 335 345 344 333 339 339 335 329 320 308 301 299 307 295 300 297 294 293 283 282 281 281 270 261 257 255 251 245 242 238 233 231 232 231 231 231 233 233 233 233 233 232
349 339 332 335 347 355 355 339 339 327 317 312 302 288 304 310 304 297 291 291 284 278 282 280 273 267 259 256 247 241 239 235 233 230 230 231 230 229 231 232 232 231 231 231
346 339 327 331 353 356 339 337 332 325 319 311 302 293 303 304 304 295 286 287 286 281 285 280 277 270 260 257 244 239 235 232 231 229 228 229 229 228 229 230 230 229 229 229
336 334 329 324 329 332 329 324 323 322 314 309 307 288 303 304 304 300 287 277 283 285 288 285 280 275 264 257 244 238 235 232 229 226 226 228 228 227 229 230 229 228 227 227
338 324 322 320 323 325 321 321 316 316 315 310 295 300 302 306 304 301 296 274 277 287 290 288 283 277 267 257 246 238 235 231 228 228 226 227 227 227 228 228 228 228 227 226
332 323 321 315 321 324 323 321 313 306 309 308 303 298 310 306 310 299 303 289 288 294 291 290 286 278 268 259 249 240 234 230 227 228 228 227 225 225 225 227 226 227 227 226
314 316 320 311 324 327 324 327 325 303 298 307 300 302 308 311 311 298 311 304 297 299 300 294 288 280 268 261 254 244 235 230 228 229 227 225 224 224 224 225 226 226 225 224
309 313 316 313 324 315 324 328 308 293 290 301 294 294 303 306 311 309 313 307 309 304 304 297 292 284 270 261 257 247 238 231 228 228 225 224 224 224 225 226 225 225 225 223
313 315 318 313 309 311 321 322 317 299 285 291 285 290 296 304 303 309 320 304 302 309 311 304 295 289 277 261 257 249 241 235 231 228 226 225 225 225 225 226 225 225 224 224
335 311 306 311 308 299 321 315 305 287 278 271 292 288 299 304 298 307 304 305 303 316 316 321 307 299 289 269 257 248 242 238 233 229 227 226 226 226 226 227 226 226 225 224
332 326 307 301 300 304 316 298 301 286 279 281 291 287 292 296 289 286 303 305 308 310 320 323 320 311 301 282 262 245 243 241 238 233 229 228 228 229 228 228 227 225 225 225
331 327 319 313 303 291 312 291 293 276 278 281 284 281 285 291 291 292 307 309 300 307 313 318 326 324 316 300 272 251 243 243 239 233 228 228 229 229 229 227 226 225 224 223
318 317 313 302 298 305 278 273 279 281 274 274 276 277 276 282 290 294 303 308 302 303 306 314 322 330 328 316 292 263 254 248 238 236 231 229 228 228 229 227 225 224 223 223
321 313 303 302 274 254 261 263 265 280 275 276 273 275 272 279 291 290 298 300 300 300 299 313 320 324 332 325 311 290 276 259 242 237 236 232 232 231 230 229 227 225 224 223
314 313 305 292 257 262 255 254 262 272 277 276 277 274 272 279 288 291 294 299 296 297 299 302 312 318 323 330 324 314 299 276 248 241 238 234 233 232 230 231 230 228 228 225
315 305 304 279 278 271 258 261 271 277 279 277 274 274 268 274 283 287 288 292 293 296 300 296 305 311 310 319 326 325 320 300 260 245 242 238 235 233 231 229 230 233 229 227